HST 1 20580U 90037B 25173.67249660 .00004199 00000-0 15349-3 0 9990 2 20580 28.4690 7.7332 0002418 146.3870 213.6878 15.25373989733529 ISS (ZARYA) 1 25544U 98067A 25174.12960992 .00008687 00000-0 15892-3 0 9994 2 25544 51.6363 277.6254 0002153 276.8659 83.2085 15.50196020516088 CXO 1 25867U 99040B 25174.72419316 .00000421 00000-0 00000+0 0 9998 2 25867 49.6806 129.3423 8417193 309.6282 0.0394 0.37805500 27126